Location: Kelowna
(49.8880°N, 119.4960°W)
Time: 14:41:40
(UTC-07:00)

TIGRISAT - Pass Details

Date: 24 April 2024
Orbit: 594 x 672 km, 97.7° (Epoch: 27 May)

Event Time Altitude Azimuth Distance (km) Brightness Sun altitude
Rises 04:41:10 0° 163° (SSE) 2,922 ? -10.1°
Reaches altitude 10° 04:43:23 10° 162° (SSE) 2,006 ? -9.8°
Maximum altitude 04:47:45 83° 77° (ENE) 631 ? -9.2°
Drops below altitude 10° 04:52:03 10° 348° (NNW) 1,976 ? -8.6°
Sets 04:54:13 0° 348° (NNW) 2,875 ? -8.3°
